Regional Weather Roundup
Issued by NWS

Home | Current Version | Previous Version | Graphics & Text | Print | Product List | Glossary Off
Versions: 1 2 3 4 5 6 7 8 9 10 11 12 13 14 15 16 17 18 19 20 21 22 23 24 25 26 27 28 29 30 31 32 33 34 35 36 37 38 39 40 41 42 43 44 45 46 47 48 49 50

000
ASUS43 KDMX 111601
RWRIA

WEATHER ROUNDUP FOR IOWA
NATIONAL WEATHER SERVICE DES MOINES IA
1000 AM CST MON DEC 11 2017

NOTE: "FAIR" INDICATES FEW OR NO CLOUDS BELOW 12,000 FEET WITH NO
SIGNIFICANT WEATHER AND/OR OBSTRUCTIONS TO VISIBILITY.

* - THESE STATIONS ARE NOT NWS STATIONS...THUS NOT UNDER NWS
QUALITY CONTROL.  THEY ALSO DO NOT REPORT WEATHER SUCH
AS PRECIPITATION OR FOG.

IAZ001>003-012>014-020>022-031>034-043>046-111700-
   NORTHWEST IOWA

CITY           SKY/WX    TMP DP  RH WIND       PRES   REMARKS
CARROLL *      CLOUDY    45  28  53 NW32G39   29.83R
CHEROKEE *     LGT RAIN  41  33  74 NW22G29   29.87R
DENISON *      CLOUDY    43  30  61 NW24G32   29.89R
LE MARS *      CLOUDY    43  34  70 NW26G39   29.91R
ORANGE CITY *  CLOUDY    41  37  87 NW21G31   29.88R
SHELDON *      CLOUDY    39  34  81 NW24G35   29.85R WCI  28
SIOUX CITY     PTSUNNY   45  31  58 NW31G45   29.91R
SPENCER        CLOUDY    40  33  76 NW24G33   29.82R WCI  29
STORM LAKE *   CLOUDY    41  32  70 NW31G39   29.83R
$$

IAZ055>058-069>071-079>083-090>094-111700-
   SOUTHWEST IOWA

CITY           SKY/WX    TMP DP  RH WIND       PRES   REMARKS
ATLANTIC *     CLOUDY    46  28  49 NW29G38   29.89R
AUDUBON *      PTSUNNY   45  28  53 NW18G31   29.87R
CLARINDA *     SUNNY     48  28  46 NW36G45     N/A
COUNCIL BLFS * SUNNY     46  28  49 NW26G41   29.92S
CRESTON *      SUNNY     45  27  49 NW32G46   29.86R
HARLAN  *      CLOUDY    45  30  57 NW33G46   29.92R
LAMONI         SUNNY     46  24  42 NW30G44   29.84R
RED OAK *      SUNNY     48  27  43 NW25G35   29.93R
SHENANDOAH *   SUNNY     48  25  40 NW23G35   29.96R
$$

IAZ047>049-059>061-072>074-084-111700-
   CENTRAL IOWA

CITY           SKY/WX    TMP DP  RH WIND       PRES   REMARKS
AMES           CLOUDY    41  29  62 NW23G35   29.77R
ANKENY *       CLOUDY    43  28  56 NW22G36   29.79R
BOONE *        CLOUDY    43  32  65 NW30G44   29.77R
CHARITON *     SUNNY     45  23  42 NW24G33   29.80R
DES MOINES     CLOUDY    44  27  51 NW24G39   29.78R
GRINNELL*      SUNNY     41  25  52 W21G31    29.73S
KNOXVILLE *    MOSUNNY   45  23  42 NW21G31   29.76R
MARSHALLTOWN   MOSUNNY   39  25  57 NW23      29.72S WCI  28
NEWTON *       CLOUDY    41  23  48 NW24G33   29.75R
PELLA *        SUNNY     43  24  45 NW24G36   29.76S
PERRY *        PTSUNNY   43  27  53 NW21G33   29.82R
$$

IAZ004>006-015-016-023>025-035-036-111700-
   NORTH CENTRAL IOWA

CITY           SKY/WX    TMP DP  RH WIND       PRES   REMARKS
ALGONA *       CLOUDY    39  34  81 NW21G32   29.78R WCI  29
CLARION *      CLOUDY    39  32  75 NW32G39   29.75R WCI  27
ESTHERVILLE    CLOUDY    36  33  89 NW21G28   29.79R WCI  25
FORT DODGE *   CLOUDY    40  31  70 NW18G31   29.79R WCI  31
MASON CITY     CLOUDY    35  28  75 NW16      29.74R WCI  25
FOREST CITY *  CLOUDY    36  30  80 NW13      29.74R WCI  27
WEBSTER CITY * MIX PCPN  41  32  70 NW33G43   29.74S
IOWA FALLS *   PTSUNNY   38  27  64 W25G32    29.74R WCI  27
$$

IAZ007>011-017>019-026>030-037>042-050>054-066-111700-
   NORTHEAST IOWA

CITY           SKY/WX    TMP DP  RH WIND       PRES   REMARKS
CEDAR RAPIDS   CLOUDY    37  27  67 SW6       29.71F WCI  32
CHARLES CITY * CLOUDY    32  28  86 N3        29.73R
CLINTON *      CLOUDY    34  27  75 SE13      29.74F WCI  25
DECORAH *      CLOUDY    30  25  80 SE3       29.70F
DUBUQUE        MOSUNNY   33  25  72 S7        29.73F WCI  27
MONTICELLO *   PTSUNNY   34  27  75 S6        29.73S WCI  29
OELWEIN *      PTSUNNY   34  28  80 SE6       29.70F WCI  29
WATERLOO       PTSUNNY   34  24  67 W5        29.72S WCI  30
$$

IAZ064-065-067-068-078-111700-
   EAST CENTRAL IOWA

CITY           SKY/WX    TMP DP  RH WIND       PRES   REMARKS
DAVENPORT      CLOUDY    35  26  69 SE9       29.75F WCI  28
IOWA CITY      SUNNY     37  27  67 SE3       29.75F
MT. PLEASANT * CLOUDY    36  26  65 SW13      29.72F WCI  28
MUSCATINE *    CLOUDY    36  27  69 S6        29.73F WCI  31
QUAD CITIES    CLOUDY    38  27  64 SE7       29.73F WCI  33
$$

IAZ062-063-075>077-085>089-095>099-111700-
   SOUTHEAST IOWA

CITY           SKY/WX    TMP DP  RH WIND       PRES   REMARKS
BURLINGTON     CLOUDY    38  28  67 S13       29.72F WCI  30
FAIRFIELD *    CLOUDY    41  25  52 W13       29.72F
FORT MADISON * CLOUDY    39  27  60 SW13G18   29.74F WCI  32
KEOKUK *       CLOUDY    39  27  60 SW13      29.75F WCI  32
OSKALOOSA *      N/A     42  24  49 NW25G32   29.74S
OTTUMWA        SUNNY     44  23  43 W22G30    29.73F
WASHINGTON *   CLOUDY    37  28  70 SW9       29.73F WCI  31
$$

ABBREVIATIONS USED IN REMARKS
   TC - TEMPERATURES IN CELSIUS
  WCI - WIND CHILL INDEX
   HX - HEAT INDEX
  VSB - VISIBILITY
$$




USA.gov is the U.S. government's official web portal to all federal, state and local government web resources and services.